TimeEST,TemperatureF,Dew PointF,Humidity,Sea Level PressureIn,VisibilityMPH,Wind Direction,Wind SpeedMPH,Gust SpeedMPH,PrecipitationIn,Events,Conditions,WindDirDegrees,DateUTC
12:54 AM,34.0,21.9,61,30.33,10.0,East,10.4,-,N/A,,Overcast,90,2012-12-16 05:54:00
1:54 AM,34.0,21.9,61,30.32,10.0,East,10.4,-,N/A,,Overcast,90,2012-12-16 06:54:00
2:54 AM,34.0,21.9,61,30.32,10.0,East,9.2,-,N/A,,Overcast,100,2012-12-16 07:54:00
3:54 AM,34.0,23.0,64,30.31,10.0,East,8.1,-,N/A,,Overcast,100,2012-12-16 08:54:00
4:54 AM,34.0,21.9,61,30.31,10.0,East,8.1,-,N/A,,Overcast,90,2012-12-16 09:54:00
5:54 AM,34.0,23.0,64,30.31,10.0,East,8.1,-,N/A,,Overcast,90,2012-12-16 10:54:00
6:54 AM,34.0,23.0,64,30.30,10.0,East,10.4,-,N/A,,Overcast,80,2012-12-16 11:54:00
7:54 AM,35.1,24.1,64,30.30,10.0,ESE,9.2,-,N/A,,Overcast,110,2012-12-16 12:54:00
8:54 AM,35.1,25.0,67,30.30,10.0,East,11.5,-,N/A,,Overcast,100,2012-12-16 13:54:00
9:05 AM,35.6,24.8,65,30.30,10.0,East,11.5,-,N/A,,Overcast,100,2012-12-16 14:05:00
9:54 AM,36.0,26.1,67,30.31,10.0,East,11.5,-,N/A,,Overcast,100,2012-12-16 14:54:00
10:54 AM,36.0,26.1,67,30.28,10.0,ESE,15.0,-,N/A,,Overcast,110,2012-12-16 15:54:00
11:54 AM,36.0,27.0,70,30.25,10.0,East,17.3,-,N/A,,Overcast,100,2012-12-16 16:54:00
12:54 PM,37.0,28.0,70,30.23,10.0,ESE,17.3,-,N/A,,Overcast,110,2012-12-16 17:54:00
1:54 PM,36.0,28.9,76,30.20,4.0,ESE,17.3,-,0.00,Snow,Light Snow,110,2012-12-16 18:54:00
2:31 PM,35.6,30.2,81,30.20,3.0,ESE,19.6,-,0.01,Snow,Light Snow,120,2012-12-16 19:31:00
2:54 PM,35.1,30.9,85,30.20,7.0,SE,16.1,-,0.01,Rain,Light Rain,140,2012-12-16 19:54:00
3:24 PM,35.6,32.0,87,30.19,2.5,SE,17.3,-,0.00,Snow,Light Snow,130,2012-12-16 20:24:00
3:47 PM,35.6,32.0,87,30.19,2.5,SE,12.7,-,0.01,Rain,Light Rain,130,2012-12-16 20:47:00
3:54 PM,35.1,32.0,89,30.19,2.5,SE,15.0,-,0.01,Rain,Light Rain,130,2012-12-16 20:54:00
3:58 PM,35.6,32.0,87,30.18,3.0,SE,15.0,-,0.00,Rain,Light Rain,130,2012-12-16 20:58:00
4:03 PM,35.6,32.0,87,30.18,3.0,SE,15.0,-,0.00,Rain,Light Rain,130,2012-12-16 21:03:00
4:19 PM,35.6,32.0,87,30.18,4.0,SE,11.5,-,0.00,Rain,Light Rain,130,2012-12-16 21:19:00
4:54 PM,36.0,33.1,89,30.17,6.0,SE,15.0,-,0.01,,Overcast,130,2012-12-16 21:54:00
5:06 PM,35.6,33.8,93,30.17,6.0,SE,15.0,-,0.00,Rain,Light Rain,130,2012-12-16 22:06:00
5:54 PM,36.0,34.0,93,30.17,3.0,ESE,17.3,-,0.00,Rain,Light Rain,110,2012-12-16 22:54:00
6:15 PM,35.6,33.8,93,30.17,2.5,ESE,19.6,-,0.01,Snow,Light Snow,120,2012-12-16 23:15:00
6:26 PM,35.6,33.8,93,30.16,3.0,ESE,18.4,-,0.01,Rain,Light Rain,120,2012-12-16 23:26:00
6:31 PM,35.6,33.8,93,30.16,3.0,ESE,19.6,24.2,0.01,Rain,Light Rain,110,2012-12-16 23:31:00
6:39 PM,35.6,33.8,93,30.16,2.5,ESE,17.3,25.3,0.02,Rain,Rain,110,2012-12-16 23:39:00
6:47 PM,37.4,33.8,87,30.16,3.0,ESE,17.3,-,0.03,Rain,Light Rain,110,2012-12-16 23:47:00
6:54 PM,36.0,34.0,93,30.15,4.0,East,16.1,-,0.03,Rain,Light Rain,100,2012-12-16 23:54:00
7:52 PM,37.4,35.6,93,30.14,8.0,East,17.3,-,0.02,Rain,Light Rain,100,2012-12-17 00:52:00
7:54 PM,37.0,35.1,93,30.14,8.0,East,17.3,-,0.02,Rain,Light Rain,100,2012-12-17 00:54:00
8:07 PM,37.4,33.8,87,30.13,6.0,East,19.6,-,0.01,Rain,Light Rain,100,2012-12-17 01:07:00
8:20 PM,37.4,33.8,87,30.14,8.0,East,15.0,-,0.02,Rain,Light Rain,100,2012-12-17 01:20:00
8:44 PM,37.4,35.6,93,30.12,5.0,East,17.3,-,0.02,Rain,Light Rain,100,2012-12-17 01:44:00
8:54 PM,37.0,35.1,93,30.12,4.0,East,19.6,23.0,0.03,Rain,Light Rain,100,2012-12-17 01:54:00
9:07 PM,37.4,35.6,93,30.12,6.0,East,17.3,-,0.01,Rain,Light Rain,100,2012-12-17 02:07:00
9:54 PM,37.9,35.1,89,30.12,3.0,East,18.4,-,0.04,Rain,Light Rain,100,2012-12-17 02:54:00
10:04 PM,37.4,35.6,93,30.12,2.5,East,16.1,-,0.00,Rain,Light Rain,100,2012-12-17 03:04:00
10:09 PM,37.4,35.6,93,30.11,3.0,East,16.1,-,0.00,Rain,Light Rain,90,2012-12-17 03:09:00
10:16 PM,37.4,35.6,93,30.11,3.0,East,19.6,-,0.01,Rain,Light Rain,90,2012-12-17 03:16:00
10:33 PM,37.4,35.6,93,30.11,3.0,East,17.3,-,0.01,Rain,Light Rain,90,2012-12-17 03:33:00
10:52 PM,37.4,35.6,93,30.11,2.5,East,17.3,-,0.03,Rain,Rain,90,2012-12-17 03:52:00
10:54 PM,37.9,36.0,93,30.11,2.5,East,18.4,-,0.03,Rain,Rain,90,2012-12-17 03:54:00
11:54 PM,37.9,36.0,93,30.09,2.5,East,18.4,-,0.06,Rain,Light Rain,90,2012-12-17 04:54:00